User: anonymous
Location: Lawrence Hall of Science
(37.8785°N, 122.2415°W)
Time: 22:58:47
(UTC-07:00)
Language:

Cosmos 1461 - Orbit

View from above orbital plane
View from above orbital plane
View from above satellite
View from above satellite

Ground track
Ground track

The orbit data is extracted from the following two-line orbital elements,

1 14064U 83044A   14273.78812448  .00003155  00000-0  32289-3 0  6452
2 14064 065.0041 102.3374 0093627 074.0183 034.4332 14.89125744575576
Epoch (UTC): 30 September 2014 18:54:53
Eccentricity: 0.0093627
inclination: 65.0041°
perigee height: 535 km
apogee height: 666 km
right ascension of ascending node: 102.3374°
argument of perigee: 74.0183°
revolutions per day: 14.89125744
mean anomaly at epoch: 34.4332°
orbit number at epoch: 57557

The dashed part of the orbit path shows where the satellite is in the earth's shadow,  

DLR